FW0827 Weather Reports


Display with metric or nautical units.
time (UTC)temp
F
wind
direction
speed
MPH
gust
MPH
rain 1hr
in
rain 24hr
in
rain mn
in
humidity
%
barometer
mb
20260903074204 69 1 0.0 1.0 0.06 0.85 0.49 99 1016.7
20260903073703 69 0 1.0 3.0 0.06 0.85 0.49 99 1017.0
20260903073203 69 0 0.0 0.0 0.06 0.85 0.49 99 1017.3
20260903072703 69 0 0.0 0.0 0.06 0.85 0.49 99 1017.4
20260903072204 69 0 0.0 1.0 0.06 0.85 0.49 99 1017.4
20260903071203 69 341 1.0 5.0 0.05 0.84 0.48 99 1017.4
20260903070704 69 295 0.0 3.0 0.01 0.80 0.44 99 1017.8
20260903070203 69 295 0.0 0.0 0.00 0.79 0.43 99 1017.6
20260903065704 69 295 0.0 0.0 0.00 0.79 0.43 99 1017.4
20260903065203 69 294 0.0 1.0 0.00 0.79 0.43 99 1017.5
20260903064702 69 294 0.0 1.0 0.00 0.79 0.43 99 1017.3
20260903064203 69 295 0.0 1.0 0.01 0.79 0.43 99 1017.5
20260903063703 69 294 0.0 1.0 0.03 0.79 0.43 99 1017.7
20260903063203 69 295 0.0 1.0 0.13 0.79 0.43 99 1017.8
20260903062704 69 287 1.0 1.0 0.31 0.79 0.43 99 1017.7
20260903062203 69 295 0.0 5.0 0.40 0.79 0.43 99 1017.8
20260903061704 69 49 2.0 5.0 0.42 0.79 0.43 99 1017.8
20260903061203 69 41 0.0 5.0 0.43 0.79 0.43 99 1018.1
20260903060703 69 49 1.0 5.0 0.43 0.79 0.43 99 1018.1
20260903060203 69 53 2.0 5.0 0.43 0.79 0.43 99 1018.1
20260903055703 69 306 1.0 1.0 0.43 0.79 0.43 99 1018.2
20260903054703 69 263 1.0 7.0 0.43 0.79 0.43 99 1018.0
20260903054203 69 18 3.0 9.0 0.42 0.78 0.42 99 1017.4
20260903053203 70 101 6.0 16.0 0.30 0.66 0.30 99 1018.7
20260903052703 70 319 5.0 9.0 0.12 0.48 0.12 99 1019.8
20260903051703 70 6 3.0 7.0 0.01 0.37 0.01 99 1018.9
20260903051203 71 52 1.0 8.0 0.00 0.36 0.00 99 1018.1
20260903050703 71 10 2.0 7.0 0.00 0.36 0.00 99 1018.1
20260903045703 71 55 2.0 5.0 0.18 0.36 0.00 99 1018.1
20260903045203 71 350 1.0 1.0 0.19 0.36 0.00 99 1018.0
20260903044703 71 350 0.0 3.0 0.19 0.36 0.00 99 1018.4
20260903044203 71 354 0.0 3.0 0.19 0.36 0.00 99 1018.1
20260903043703 71 307 0.0 3.0 0.19 0.36 0.00 99 1018.2
20260903043203 71 278 1.0 3.0 0.19 0.36 0.00 99 1018.0
20260903042204 71 54 1.0 7.0 0.19 0.36 0.00 99 1017.6
20260903041703 71 337 0.0 1.0 0.19 0.36 0.00 99 1018.2
20260903041203 71 336 0.0 1.0 0.19 0.36 0.00 99 1018.5
20260903040705 71 310 0.0 0.0 0.19 0.36 0.00 99 1018.1
20260903040204 71 307 0.0 0.0 0.19 0.36 0.00 99 1018.1
20260903035704 71 300 0.0 0.0 0.01 0.18 0.18 99 1018.2
20260903035204 71 323 0.0 0.0 0.01 0.18 0.18 99 1018.4
20260903034704 71 324 0.0 0.0 0.00 0.17 0.17 99 1018.3
20260903034203 71 324 0.0 0.0 0.00 0.17 0.17 99 1018.4
20260903033705 71 313 0.0 0.0 0.00 0.17 0.17 99 1018.4
20260903032703 71 323 0.0 0.0 0.00 0.17 0.17 99 1018.7
20260903031703 71 275 0.0 0.0 0.00 0.17 0.17 99 1018.5
20260903031203 71 275 0.0 1.0 0.00 0.17 0.17 99 1018.4
20260903030703 71 275 1.0 1.0 0.00 0.17 0.17 99 1018.3
20260903030204 71 275 1.0 1.0 0.00 0.17 0.17 99 1018.3
20260903025703 71 325 0.0 1.0 0.00 0.17 0.17 99 1018.4
20260903025205 71 331 0.0 0.0 0.00 0.17 0.17 99 1018.4
20260903024704 71 331 0.0 0.0 0.00 0.17 0.17 99 1018.5
20260903024204 71 331 0.0 0.0 0.00 0.17 0.17 99 1018.4
20260903023704 71 331 0.0 0.0 0.00 0.17 0.17 99 1018.4
20260903021703 71 350 0.0 1.0 0.00 0.17 0.17 99 1018.5
20260903021204 71 296 1.0 3.0 0.00 0.17 0.17 99 1018.3
20260903020203 71 327 1.0 1.0 0.00 0.17 0.17 99 1018.0
20260903015704 71 332 0.0 1.0 0.00 0.17 0.17 99 1018.2
20260903014205 71 301 1.0 1.0 0.00 0.17 0.17 99 1018.3
20260903013704 71 321 0.0 3.0 0.00 0.17 0.17 99 1018.2
20260903013204 71 325 1.0 3.0 0.00 0.17 0.17 99 1018.0
20260903012703 71 354 1.0 5.0 0.00 0.17 0.17 99 1018.2
20260903012205 71 282 0.0 1.0 0.00 0.17 0.17 99 1018.5
20260903011704 71 338 1.0 3.0 0.00 0.17 0.17 99 1018.3
20260903011203 71 358 1.0 3.0 0.00 0.17 0.17 99 1018.4
20260903010704 71 11 2.0 8.0 0.00 0.17 0.17 99 1018.4
20260903010204 71 333 1.0 5.0 0.00 0.17 0.17 99 1018.3
20260903005703 71 63 1.0 5.0 0.00 0.17 0.17 99 1018.2
20260903005204 71 278 1.0 1.0 0.00 0.17 0.17 99 1018.5
20260903004703 71 9 1.0 3.0 0.00 0.17 0.17 99 1018.5
20260903004204 71 17 1.0 3.0 0.00 0.17 0.17 99 1018.5
20260903003703 71 344 0.0 1.0 0.00 0.17 0.17 99 1018.5
20260903003205 71 289 0.0 1.0 0.00 0.17 0.17 99 1018.4
20260903002704 72 340 0.0 1.0 0.00 0.17 0.17 99 1018.5
20260903002205 72 340 1.0 5.0 0.00 0.17 0.17 99 1018.3
20260903001704 72 276 0.0 3.0 0.00 0.17 0.17 99 1018.3
20260903001204 72 289 0.0 1.0 0.00 0.17 0.17 99 1018.3
20260903000704 72 288 0.0 1.0 0.00 0.17 0.17 99 1018.0
20260903000205 72 346 0.0 3.0 0.00 0.17 0.17 99 1017.7
20260902235703 72 23 2.0 5.0 0.00 0.17 0.17 99 1018.2
20260902234705 72 23 1.0 5.0 0.00 0.17 0.17 99 1017.8
20260902234205 72 68 2.0 5.0 0.00 0.17 0.17 99 1017.9
20260902233704 72 40 2.0 5.0 0.00 0.17 0.17 99 1018.0
20260902232704 72 292 1.0 5.0 0.00 0.17 0.17 99 1017.8
20260902232204 72 83 2.0 5.0 0.00 0.17 0.17 99 1018.0
20260902231204 72 73 2.0 3.0 0.00 0.17 0.17 99 1018.1
20260902230704 72 24 1.0 3.0 0.00 0.17 0.17 99 1018.0
20260902230204 72 25 0.0 3.0 0.00 0.17 0.17 99 1018.2
20260902225203 72 12 1.0 3.0 0.00 0.17 0.17 99 1018.2
20260902224704 73 26 0.0 5.0 0.00 0.17 0.17 99 1018.1
20260902224205 73 17 1.0 5.0 0.00 0.17 0.17 99 1018.1
20260902223704 73 42 1.0 5.0 0.00 0.17 0.17 99 1018.1
20260902223204 73 30 1.0 5.0 0.00 0.17 0.17 99 1018.1
20260902222721 74 29 2.0 7.0 0.00 0.17 0.17 99 1018.4
20260902222222 74 287 1.0 7.0 0.00 0.17 0.17 99 1018.4
20260902221221 74 9 0.0 3.0 0.00 0.17 0.17 99 1018.5
20260902220722 74 67 0.0 8.0 0.00 0.17 0.17 99 1018.4
20260902220221 74 66 2.0 8.0 0.00 0.17 0.17 99 1018.4
20260902215722 74 334 1.0 3.0 0.00 0.17 0.17 99 1018.4
20260902215221 74 306 0.0 1.0 0.00 0.17 0.17 99 1018.6
20260902214722 74 313 0.0 1.0 0.00 0.17 0.17 99 1018.5
20260902214221 74 329 1.0 1.0 0.00 0.17 0.17 99 1018.6
20260902213722 74 290 0.0 1.0 0.00 0.17 0.17 99 1018.8
20260902213221 73 290 0.0 0.0 0.00 0.17 0.17 99 1018.8
20260902212721 74 290 0.0 0.0 0.00 0.17 0.17 99 1018.6
20260902212222 73 290 0.0 0.0 0.00 0.17 0.17 99 1018.4
20260902211722 73 290 0.0 1.0 0.00 0.17 0.17 99 1018.4
20260902210722 73 286 0.0 1.0 0.00 0.17 0.17 99 1018.3
20260902210222 73 286 0.0 1.0 0.00 0.17 0.17 99 1018.0
20260902205722 72 296 1.0 3.0 0.00 0.17 0.17 99 1018.0
20260902205222 72 272 2.0 3.0 0.00 0.17 0.17 99 1017.9
20260902204722 73 335 0.0 3.0 0.00 0.17 0.17 99 1018.3
20260902204222 73 267 1.0 3.0 0.00 0.17 0.17 99 1018.1
20260902203723 72 267 1.0 5.0 0.00 0.17 0.17 99 1018.1
20260902201721 72 59 0.0 3.0 0.00 0.17 0.17 99 1018.5
20260902201222 72 58 2.0 3.0 0.00 0.17 0.17 99 1018.5
20260902200722 72 9 1.0 3.0 0.00 0.17 0.17 99 1018.5
20260902200221 72 33 1.0 3.0 0.00 0.17 0.17 99 1018.5
20260902195722 72 25 0.0 1.0 0.00 0.17 0.17 99 1018.7
20260902195221 72 25 0.0 7.0 0.00 0.17 0.17 99 1018.7
20260902194221 72 28 0.0 5.0 0.00 0.17 0.17 99 1018.5
20260902193721 72 37 2.0 3.0 0.00 0.17 0.17 99 1018.3
20260902193221 72 324 1.0 3.0 0.00 0.17 0.17 99 1018.4
20260902192721 71 358 1.0 8.0 0.00 0.17 0.17 99 1018.7
20260902192221 71 357 0.0 3.0 0.00 0.17 0.17 99 1018.6
20260902191723 71 62 1.0 7.0 0.00 0.17 0.17 99 1018.6
20260902191222 71 327 2.0 7.0 0.00 0.17 0.17 99 1018.5
20260902190722 71 77 3.0 8.0 0.00 0.17 0.17 99 1018.4
20260902190222 71 56 3.0 7.0 0.01 0.17 0.17 99 1018.4
20260902185722 71 87 2.0 5.0 0.02 0.17 0.17 99 1018.4
20260902185221 71 57 1.0 5.0 0.03 0.17 0.17 99 1018.6
20260902184721 71 93 2.0 5.0 0.04 0.17 0.17 99 1018.8
20260902184222 71 38 2.0 3.0 0.05 0.17 0.17 99 1018.8
20260902183721 71 25 2.0 3.0 0.07 0.17 0.17 99 1018.9
20260902182721 71 338 0.0 1.0 0.09 0.17 0.17 99 1019.0
20260902182222 71 324 0.0 0.0 0.10 0.17 0.17 99 1019.2
20260902181222 70 315 0.0 0.0 0.13 0.17 0.17 99 1019.3
20260902180726 70 324 0.0 0.0 0.15 0.17 0.17 99 1019.5
20260902180222 70 315 0.0 0.0 0.15 0.16 0.16 99 1019.6
20260902175722 70 334 0.0 1.0 0.15 0.15 0.15 99 1019.9
20260902174723 70 331 1.0 3.0 0.13 0.13 0.13 99 1020.1
20260902174222 70 274 0.0 1.0 0.12 0.12 0.12 99 1019.8
20260902173722 70 273 0.0 1.0 0.10 0.10 0.10 99 1019.6
20260902173222 70 273 0.0 0.0 0.09 0.09 0.09 99 1019.9
20260902171721 70 278 1.0 3.0 0.06 0.06 0.06 99 1020.3
20260902171222 70 301 0.0 0.0 0.04 0.04 0.04 99 1020.7
20260902170722 70 298 0.0 0.0 0.02 0.02 0.02 99 1020.5
20260902170222 71 297 0.0 0.0 0.01 0.01 0.01 99 1020.6
20260902165722 71 297 0.0 0.0 0.00 0.00 0.00 99 1020.7
20260902164721 70 294 1.0 1.0 0.00 0.00 0.00 99 1020.7
20260902164222 70 296 0.0 1.0 0.00 0.00 0.00 99 1020.9
20260902163721 70 271 0.0 1.0 0.00 0.00 0.00 99 1020.6
20260902163222 70 269 1.0 3.0 0.00 0.00 0.00 99 1020.5
20260902162721 70 270 1.0 3.0 0.00 0.00 0.00 99 1020.3
20260902162222 70 48 1.0 5.0 0.00 0.00 0.00 99 1020.5
20260902161722 70 27 1.0 5.0 0.00 0.00 0.00 99 1020.3
20260902161222 70 344 0.0 3.0 0.00 0.00 0.00 99 1020.5
20260902160722 70 276 1.0 3.0 0.00 0.00 0.00 99 1020.4
20260902160221 70 14 0.0 3.0 0.00 0.00 0.00 99 1020.3
20260902155221 70 256 1.0 5.0 0.00 0.00 0.00 99 1019.9
20260902154722 70 262 1.0 5.0 0.00 0.00 0.00 99 1019.8
20260902153222 70 319 0.0 7.0 0.00 0.00 0.00 99 1019.8
20260902152721 70 16 1.0 5.0 0.00 0.00 0.00 99 1020.0
20260902152222 70 43 1.0 5.0 0.00 0.00 0.00 99 1020.0
20260902151722 70 27 1.0 5.0 0.00 0.00 0.00 99 1020.0
20260902151222 70 62 2.0 5.0 0.00 0.00 0.00 99 1020.0
20260902150722 70 9 1.0 5.0 0.00 0.00 0.00 99 1020.1
20260902150222 70 330 1.0 7.0 0.00 0.00 0.00 99 1019.9
20260902145721 69 59 1.0 7.0 0.00 0.00 0.00 99 1020.1
20260902145222 69 57 2.0 7.0 0.00 0.00 0.00 99 1020.1
20260902144722 69 69 2.0 7.0 0.00 0.00 0.00 99 1020.4
20260902144222 69 6 1.0 5.0 0.00 0.00 0.00 99 1020.3
20260902143722 69 47 1.0 5.0 0.00 0.00 0.00 99 1020.2
20260902143222 70 59 1.0 3.0 0.00 0.00 0.00 99 1020.2
20260902141722 69 359 1.0 1.0 0.00 0.00 0.00 99 1020.3
20260902141222 69 3 1.0 5.0 0.00 0.00 0.00 99 1020.2
20260902140222 70 45 2.0 7.0 0.00 0.00 0.00 99 1020.0
20260902135722 69 34 2.0 5.0 0.00 0.00 0.00 99 1019.9
20260902135222 69 60 3.0 5.0 0.00 0.00 0.00 99 1019.9
20260902134722 69 56 2.0 5.0 0.00 0.00 0.00 99 1019.8
20260902134222 69 57 2.0 8.0 0.00 0.00 0.00 99 1019.9
20260902133722 70 65 2.0 8.0 0.00 0.00 0.00 99 1019.7
20260902132723 69 54 2.0 7.0 0.00 0.00 0.00 99 1019.7